Tracking 30995 objects as of 7-Jul-2025
HD Live streaming from Space Station
objects crossing your sky now

SL-14 R/B

Track SL-14 R/B now!
10-day predictions
SL-14 R/B is classified as:


NORAD ID: 18749
Int'l Code: 1988-001B
Perigee: 607.8 km
Apogee: 632.3 km
Inclination: 82.5 °
Period: 97.0 minutes
Semi major axis: 6991 km
RCS: 4.583 m2 (large)
Launch date: January 6, 1988
Source: Commonwealth of Independent States (former USSR) (CIS)
Launch site: PLESETSK MISSILE AND SPACE COMPLEX (PKMTR)

Note: This is a ROCKET BODY
Your satellite tracking list
FENGYUN 1C DEB
Track 1 satellite(s)




NASA's NSSDC Master Catalog

Two Line Element Set (TLE):
1 18749U 88001B   25187.58842873  .00000325  00000-0  34981-4 0  9993
2 18749  82.5126  66.8248 0017511 336.9077  23.1350 14.85216394  5494
Source of the keplerian elements: AFSPC